GPS III SV07

operational
NORAD ID: 62339 Int'l Des: 2024-242 Owner: SFSSC Country: US Constellation: GPS
MEOCIRCULARGNSS

关于 GPS III SV07

正在加载描述...

实时位置

正在加载3D地球...

即将过境

高度历史

Altitude vs Time

uPlot chart will show altitude changes over time

两行轨道根数

1 62339U 24242A 25296.52197701 -.00000088 00000-0 00000-0 0 9990
2 62339 54.9381 343.7761 0009556 342.0018 18.2470 2.00566957 6513
Epoch: Oct 23, 2025 • Age: 52 hours

当前状态

高度 20206.3 km
速度 3.87 km/s
星下点 43.84°N, 159.58°W
发射日期 Dec 17, 2024
运行时间 0.8 years
类型 navigation

技术详情

分类 Payload
质量 4352.00 kg
干质量 2160.00 kg
总质量 4352.00 kg
长度 3.40 m
直径 1.80 m
跨度 14.00 m
形状 Box + 2 pan
制造商 LMSSD
平台类型 A2100
阶段状态 In Orbit
所有者/国家 SFSSC/US

大型星座

Loading constellations...